www.pogodaiklimat.ru

Погода и климат >> Архив погоды >> Россия >> Ставропольский край >> Арзгир


ПОГОДА в Арзгире

  • Прогноз погоды в Арзгире
  • Монитор погоды в Арзгире

АРХИВ ПОГОДЫ в Арзгире

Время (UTC), дата Ветер
(напр.,м/с)
 
Видим.   Явления Облачность Т
(С)
Тd
(С)
f
(%)
Тe
(С)
Тes
(С)
Комфортность P
(гПа)
Po
(гПа)
Тmin
(С)
Tmax
(С)
R
(мм)
R24
(мм)
S
(см)
18 14.05 ЮЗ 3 20 км в посл. час ливневой дождь 10/10 300 м
[Cb cap]
+17.4 +14.4 83 +17 +17 1016.0 1003.9
21 14.05 ЮЗ 3 20 км 10/10 600 м
[Cb cap]
+17.6 +12.9 74 +18 +18 1016.1 1004.0
00 15.05 ЮЗ 3 20 км 10/10 300 м
[Cb cap]
+15.6 +12.1 80 +15 +15 1015.9 1003.7
03 15.05 ЮЗ 3 20 км ясно +16.0 +11.5 75 +16 +17 1016.0 1003.8 +14.3 1
06 15.05 З 4
{10}
20 км ясно +21.5 +13.6 61 +24 +32 комфорт 1016.0 1004.1
09 15.05 З 6-12
{12}
20 км ясно +25.9 +11.2 40 +27 +34 жарко 1015.1 1003.3
12 15.05 З 6-10
{12}
20 км 3/0 2000 м
[Ac trans]
+27.2 +12.1 39 +28 +32 жарко 1014.7 1002.9
15 15.05 СЗ 3
{10}
20 км 3/0 2000 м
[Ac trans]
+25.9 +12.7 44 +28 +29 жарко 1014.6 1002.8 +27.4
18 15.05 ЮЗ 2 20 км 3/0 2000 м
[Ac trans]
+19.5 +14.1 71 +22 +22 комфорт 1015.4 1003.3
21 15.05 ЮЗ 3 20 км 3/0 2000 м
[Ac trans]
+16.7 +13.4 81 +16 +16 1015.5 1003.3
00 16.05 ЮЗ 3 20 км 10/10 600 м
[Sc]
+16.1 +13.6 85 +16 +16 1015.2 1003.0
03 16.05 ЮЗ 2 20 км 3/0
[Ci fib]
+16.9 +13.7 81 +17 +18 1014.9 1002.7 +15.8
06 16.05 С 2 20 км ясно +23.9 +16.7 64 +27 +38 жарко 1014.9 1003.1
09 16.05 В 3 20 км 4/4 1000 м
[Cu med, cong]
+28.0 +14.1 43 +30 +39 жарко 1014.3 1002.6
12 16.05 В 3 20 км 4/4 1000 м
[Cu med, cong]
+28.9 +12.9 37 +30 +36 жарко 1013.6 1002.0
15 16.05 В 3 20 км 3/0
[Ci fib]
+27.9 +11.5 36 +29 +30 жарко 1013.2 1001.5 +29.3
18 16.05 ЮВ 3 20 км 4/0
[Ci fib]
+20.3 +13.0 63 +23 +23 комфорт 1014.1 1002.1
21 16.05 ЮВ 6 20 км ясно +20.6 +10.7 53 +22 +22 комфорт 1014.0 1002.0
00 17.05 З 1 20 км ясно +16.2 +11.5 74 +17 +17 1014.2 1002.0
03 17.05 штиль 0 20 км ясно +17.9 +12.7 72 +18 +20 1014.0 1001.9 +13.4
06 17.05 В 5 20 км ясно +25.1 +10.5 40 +26 +32 жарко 1014.0 1002.2
09 17.05 В 4 20 км ясно +28.5 +9.4 30 +28 +41 жарко 1013.3 1001.6
12 17.05 ЮВ 6
{10}
20 км ясно +29.9 +10.4 30 +30 +34 жарко 1012.1 1000.5
15 17.05 ЮВ 4
{10}
20 км 4/0
[Ci fib]
+26.4 +12.6 42 +28 +29 жарко 1011.4 999.7 +30.0
18 17.05 В 4 20 км 4/0
[Ci fib]
+20.8 +11.0 53 +23 +23 комфорт 1012.3 1000.3
21 17.05 ЮВ 4 20 км 3/0
[Ci fib]
+19.2 +11.6 61 +20 +20 1012.0 1000.0
00 18.05 штиль 0 20 км 3/0
[Ci fib]
+14.1 +11.3 83 +14 +14 1011.5 999.3
03 18.05 В 3 20 км ясно +17.1 +12.9 76 +17 +18 1012.3 1000.2 +12.4
06 18.05 СВ 5 20 км ясно +23.6 +13.8 54 +26 +32 жарко 1011.5 999.6
09 18.05 В 6-10
{11}
20 км ясно +26.7 +13.0 43 +28 +36 жарко 1010.6 998.9
12 18.05 В 6-11
{12}
20 км 3/0 2000 м
[Ac trans]
+28.8 +12.0 35 +30 +33 жарко 1008.9 997.3
15 18.05 В 6
{11}
20 км 3/0
[Ci fib]
+26.6 +10.3 36 +27 +28 жарко 1008.0 996.3 +29.3
18 18.05 В 4 20 км 3/0
[Ci fib]
+20.5 +12.4 60 +23 +23 комфорт 1009.6 997.7
21 18.05 В 4 20 км 3/0
[Ci fib]
+17.0 +13.8 81 +17 +17 1009.7 997.7
00 19.05 В 5 20 км 4/0
[Ci fib]
+17.6 +15.8 89 +17 +17 1009.4 997.3
03 19.05 СВ 3 4000 м дымка 10/0 2000 м
[As trans]
+16.3 +14.6 90 +16 +16 1010.2 998.1 +16.3
06 19.05 В 4 20 км 6/6 300 м
[Cb cap]
+20.5 +14.9 70 +23 +26 комфорт 1010.4 998.5 +16.1
09 19.05 СВ 2 20 км 8/8 300 м
[Cb cap]
+23.6 +12.5 50 +26 +29 жарко 1010.8 998.9
12 19.05 СВ 2 20 км 8/8 300 м
[Cb cap]
+24.7 +10.6 41 +26 +28 жарко 1010.6 998.8
15 19.05 штиль 0 20 км 9/9 300 м
[Cb cap]
+24.8 +11.7 44 +26 +26 жарко 1011.1 999.3 +25.4
18 19.05 штиль 0 20 км 6/6 300 м
[Cb cap]
+20.7 +11.7 56 +22 +22 комфорт 1012.3 1000.3
21 19.05 В 3 20 км 8/8 300 м
[Cb cap]
+19.2 +8.3 49 +20 +20 1012.3 1000.2
00 20.05 З 1 20 км 6/6 300 м
[Cb cap]
+18.1 +7.9 51 +19 +19 1013.1 1001.0
03 20.05 С 1 20 км 6/6 300 м
[Cb cap]
+16.9 +9.7 63 +18 +18 1013.7 1001.5 +16.1
06 20.05 СВ 3 20 км 9/9 300 м
[Cb cap]
+20.8 +9.6 49 +23 +24 комфорт 1014.9 1002.9
09 20.05 С 4 20 км 6/0
[Ci sp]
+26.1 +5.8 27 +25 +36 комфорт 1015.3 1003.5
12 20.05 СВ 3 20 км 8/4 300 м
[Cb cap Ac cast]
+27.0 +6.3 27 +26 +29 жарко 1015.2 1003.5
15 20.05 С 4 20 км 4/0 2000 м
[Ac cast]
+25.2 +4.1 26 +25 +25 комфорт 1015.7 1003.9 +27.0
18 20.05 СВ 4 20 км 4/0 2000 м
[Ac cast]
+18.5 +3.3 36 +19 +19 1017.8 1005.7
21 20.05 В 5 20 км 4/0 2000 м
[Ac cast]
+15.6 -1.9 30 +15 +15 1019.0 1006.7
00 21.05 В 5 20 км 8/0 2000 м
[Ac cast]
+12.7 -0.3 41 +11 +11 1019.7 1007.3
03 21.05 В 4 20 км 4/0 2000 м
[Ac trans]
+12.6 +1.5 47 +11 +12 1020.6 1008.2 +11.1
06 21.05 В 5
{10}
20 км 4/0 2000 м
[Ac trans]
+20.4 +0.8 27 +20 +25 1020.7 1008.6
09 21.05 В 5
{10}
20 км 3/0 2000 м
[Ac trans]
+23.4 +7.0 35 +24 +32 комфорт 1020.4 1008.4
12 21.05 В 5 20 км 6/0 2000 м
[Ac trans]
+25.3 +5.8 29 +25 +29 комфорт 1019.2 1007.3
15 21.05 В 6
{10}
20 км 6/0 2000 м
[Ac trans]
+23.6 +5.9 32 +24 +24 комфорт 1018.6 1006.6 +25.4

 

Местоположение метеостанции Арзгир (Ставропольский край, Россия): широта 45.40 долгота 44.20 высота над уровнем моря 103 м.

В архиве по умолчанию представлена погода в Арзгире за последнюю неделю. Архивные данные за месяц целиком и за предыдущие месяцы, начиная с января 2011 года, Вы можете получить, выбрав интересующий диапазон дат из раскрывающегося списка и нажав кнопку "Ввод!".


*Определитесь, кто Вы:
робот инопланетянин человек

Внимание! Время в таблицах - всемирное. Для получения местного времени необходимо прибавить поправку, которая равна 3 ч.

Смотрите также архив погоды в соседних городах и на ближайших метеорологических станциях:

Погода в Ики-Буруле (Калмыкия, Россия) (56 км)
Погода в Благодарном (Ставропольский край, Россия) (68 км)
Погода в Буденновске (Ставропольский край, Россия) (69 км)
Погода в Дивном (Ставропольский край, Россия) (88 км)
Погода в Светлограде (Ставропольский край, Россия) (106 км)
Погода в Элисте (Калмыкия, Россия) (108 км)
Погода в Зеленокумске (Ставропольский край, Россия) (111 км)
Погода в Александровском (Ставропольский край, Россия) (121 км)
Погода в Яшкуле (Калмыкия, Россия) (124 км)
Погода в Ремонтном (Ростовская область, Россия) (136 км)

Пояснения к столбцам:

Ветер - указаны скорость ветра в м/с - средняя за 10 мин, порывы в срок и между сроками (в фигурных скобках) и направление, откуда дует ветер: С - северный, СВ - северо-восточный, В - восточный, ЮВ - юго-восточный, Ю - южный, ЮЗ - юго-западный, З - западный, СЗ - северо-западный.
Видимость - горизонтальная дальность видимости в метрах или километрах. При видимости от 1 до 10 км при отсутствии осадков обычно наблюдается дымка, при ухудшении видимости до 1 км и менее - туман. В сухую погоду видимость может ухудшаться дымом, пылью или мглою.
Явления - указаны атмосферные явления, наблюдавшиеся в срок или в последний час перед сроком; фигурными скобками обозначены явления, наблюдавшиеся между сроками (за 1-3 часа до срока); квадратными скобками обозначены град или гололедные отложения с указанием их диаметра в мм.
Облачность - указаны через наклонную черту общая и нижняя облачность в баллах и высота нижней границы облаков в метрах; квадратными скобками обозначены формы облаков: Ci - перистые, Cs - перисто-слоистые, Cc - перисто-кучевые, Ac - высококучевые, As - высокослоистые, Sc - слоисто-кучевые, Ns - слоисто-дождевые, Cu - кучевые, Cb - кучево-дождевые. Подробнее классификацию облаков см. в Атласе облаков (PDF).
T - Температура воздуха - температура, измеренная на высоте 2 м над землей.
Td - Температура точки росы - температура, при понижении до которой содержащийся в воздухе водяной пар достигнет насыщения.
f - Относительная влажность воздуха - влажноcть воздуха, измеренная на высоте 2 м над землей.
Te - Эффективная температура - температура, которую ощущает одетый по сезону человек в тени. Характеристика душности погоды. При расчете учитывается влияние влажности воздуха и скорости ветра на теплоощущения человека.
Tes - Эффективная температура на солнце - температура, которую ощущает человек, с поправкой на солнечный нагрев. Характеристика знойности погоды. Зависит от высоты солнца над горизонтом, облачности и скорости ветра. Ночью, в пасмурную погоду, а также при ветре 12 м/с и более поправка равна нулю.
P - Атмосферное давление - приведенное к уровню моря атмосферное давление.
Po - Атмосферное давление - измеренное на уровне метеостанции атмосферное давление.
Tmin - Минимальная температура - минимум температуры воздуха на высоте 2 м над землей.
Tmax - Максимальная температура - максимум температуры воздуха на высоте 2 м над землей.
R - Количество осадков - Количество выпавших осадков за период времени, мм. При наведении курсора мыши на число - период времени, за который выпало указанное количество осадков.
R24 - Количество осадков - Количество выпавших осадков за 24 часа, мм.
S - Снежный покров - Высота снежного покрова, см. При наведении курсора мыши на число - состояние снежного покрова и степень покрытия местности в баллах.